Temp
73 73 74 75 74 74 74 74 75 75 74 74 73 73 73 74 74 73 73 74 73 73 74 74 74 75 75 73 72 71 70 69 68 71 72 75 74 74 75 76 76 77 76
72 72 74 75 74 73 71 72 73 72 72 73 74 74 72 72 74 73 73 75 73 73 74 73 73 75 74 73 73 72 71 71 70 70 73 73 72 75 74 74 75 79 77
73 72 72 71 70 69 70 70 71 71 70 71 71 71 72 73 74 73 73 73 72 73 73 73 73 74 73 74 73 73 72 73 71 70 72 73 74 75 74 73 74 76 78
72 70 69 69 69 69 68 69 69 69 69 69 70 70 71 71 71 70 72 73 73 74 73 73 74 73 73 73 73 73 74 72 71 70 70 73 73 74 72 72 73 74 76
68 69 67 67 67 68 67 67 68 68 68 68 68 69 70 70 72 69 69 70 70 70 72 72 74 74 71 71 72 73 72 71 70 70 69 70 71 71 71 74 71 73 76
68 67 66 66 66 66 66 65 65 65 65 66 66 67 67 71 65 67 69 69 68 68 68 69 70 71 71 68 68 68 70 70 70 70 70 69 71 72 72 72 71 70 70
66 66 66 65 65 64 64 64 63 63 64 64 64 65 64 65 63 64 68 68 67 66 67 67 69 74 69 69 68 66 67 66 67 71 69 70 70 72 72 71 71 70 70
65 65 64 64 63 63 63 63 62 62 62 62 62 62 62 62 61 62 65 66 65 65 66 66 66 66 64 64 66 66 67 68 69 70 69 70 71 72 71 71 70 70 71
64 64 64 64 62 62 61 61 62 61 61 61 62 61 58 57 59 60 62 63 63 63 64 65 65 63 60 60 62 63 64 67 68 64 64 63 63 63 64 67 67 66 68
64 63 62 62 62 61 61 61 61 61 61 62 60 59 58 56 57 57 59 61 59 60 61 62 62 62 58 57 59 59 61 64 66 66 66 66 65 67 64 67 68 67 68
63 62 61 61 61 61 60 61 61 60 59 60 59 57 57 57 55 55 55 56 57 57 58 59 60 57 55 54 54 58 59 62 63 63 64 66 67 67 69 69 69 68 67
62 61 61 61 62 61 59 59 59 59 57 57 57 57 56 55 54 54 54 54 56 55 55 57 57 54 52 53 56 55 55 57 62 62 62 64 65 67 69 70 69 69 71
60 60 60 60 60 60 59 58 58 57 57 57 57 55 54 54 53 52 52 54 55 55 56 56 55 53 54 56 55 56 58 59 59 60 61 63 65 67 68 68 69 69 69
59 58 58 59 59 59 60 59 58 57 56 56 55 54 52 52 52 54 55 55 54 55 55 58 56 55 55 55 56 56 57 56 56 54 55 57 60 62 64 67 64 65 64
58 58 58 58 58 58 57 56 58 57 57 56 55 54 52 50 51 52 50 52 53 53 55 56 55 54 53 53 53 54 54 53 51 52 52 53 55 57 59 61 60 61 61
57 57 57 57 57 57 56 54 49 49 50 49 48 52 53 50 48 48 48 45 46 48 54 53 52 52 51 52 51 52 53 51 52 51 51 51 51 52 53 55 55 56 56
57 56 57 56 56 55 56 56 55 52 47 46 46 46 47 48 45 44 45 46 46 50 53 52 52 52 51 52 51 52 51 52 52 52 50 50 50 50 50 51 52 53 53
57 54 57 57 57 57 57 57 57 55 54 54 48 49 46 45 45 45 45 47 51 52 52 51 51 51 51 50 50 50 51 51 51 50 50 50 49 49 49 49 50 50 50
57 57 57 57 56 57 57 57 57 55 55 55 53 49 48 44 44 44 45 52 51 51 52 52 52 52 51 51 50 50 49 49 49 48 49 48 47 47 48 48 48 48 49
58 58 57 56 56 56 56 56 55 54 55 55 54 55 53 51 53 53 51 51 51 51 52 52 53 51 51 51 51 50 50 50 49 48 48 48 47 47 46 47 48 48 49
58 59 58 57 56 56 56 57 56 56 56 56 56 55 48 55 54 53 53 52 52 52 52 52 53 53 53 52 52 52 51 51 49 48 47 47 47 46 47 48 49 51 51
58 58 57 57 56 55 56 56 56 57 57 57 57 55 45 53 54 54 53 54 55 54 54 52 53 53 53 53 53 53 52 51 49 48 47 47 47 46 48 48 50 51 52
58 58 57 57 57 55 56 57 57 57 57 57 57 57 55 55 55 55 54 56 55 55 55 53 53 54 54 54 55 54 52 51 49 47 46 47 46 47 48 48 49 49 50
59 59 58 57 57 58 58 57 57 52 56 57 57 56 57 57 57 56 56 57 57 57 57 56 55 56 55 55 55 54 52 51 48 46 45 45 45 47 49 50 52 52 52
59 58 58 58 57 58 57 58 58 57 57 57 58 57 58 57 57 57 58 57 57 57 57 57 57 57 57 56 56 55 49 40 44 40 44 44 46 47 49 50 51 51 52
61 60 59 58 57 58 57 57 58 58 58 57 57 57 56 58 58 58 57 57 56 57 57 58 58 58 58 58 57 49 38 34 42 34 45 47 49 51 52 51 52 53 53
MSLP
1012.69 1013.03 1013.38 1013.59 1013.93 1014.09 1014.37 1014.44 1014.40 1014.42 1014.32 1014.48 1014.78 1015.02 1015.14 1015.32 1015.46 1015.70 1015.92 1016.15 1016.33 1016.50 1016.71 1016.83 1016.78 1016.81 1016.83 1017.04 1017.22 1017.37 1017.54 1017.83 1017.77 1017.22 1017.00 1016.52 1016.36 1016.16 1016.07 1016.07 1016.04 1015.96 1015.72
1012.33 1012.80 1013.24 1013.72 1014.02 1014.35 1014.70 1014.68 1014.63 1014.68 1014.64 1014.68 1014.83 1015.06 1015.30 1015.43 1015.46 1015.64 1015.68 1015.79 1015.98 1016.03 1016.09 1016.41 1016.37 1016.37 1016.45 1016.52 1016.71 1016.78 1016.92 1017.12 1017.26 1016.91 1016.66 1016.43 1016.32 1015.88 1015.70 1015.69 1015.47 1015.34 1015.19
1012.29 1012.81 1013.45 1014.07 1014.42 1014.82 1015.15 1015.34 1015.22 1015.16 1015.14 1015.12 1015.14 1015.28 1015.32 1015.36 1015.42 1015.58 1015.61 1015.66 1015.85 1015.78 1015.82 1015.90 1015.95 1016.09 1015.96 1016.02 1016.20 1016.26 1016.33 1016.43 1016.62 1016.61 1016.26 1016.06 1015.84 1015.72 1015.59 1015.42 1015.13 1014.79 1014.62
1012.27 1012.79 1013.52 1014.16 1014.68 1015.18 1015.39 1015.62 1015.69 1015.55 1015.46 1015.50 1015.54 1015.55 1015.49 1015.55 1015.65 1015.74 1015.70 1015.68 1015.58 1015.57 1015.59 1015.59 1015.61 1015.64 1015.63 1015.65 1015.80 1015.82 1015.79 1015.88 1016.01 1016.09 1015.98 1015.74 1015.46 1015.21 1015.33 1015.18 1014.83 1014.51 1014.12
1012.68 1012.87 1013.47 1013.98 1014.65 1015.17 1015.55 1015.80 1015.94 1016.02 1016.01 1015.89 1015.80 1015.78 1015.80 1015.91 1016.04 1015.95 1015.86 1015.83 1015.81 1015.77 1015.69 1015.65 1015.59 1015.58 1015.58 1015.54 1015.61 1015.52 1015.56 1015.60 1015.64 1015.60 1015.52 1015.35 1015.10 1015.00 1014.91 1014.58 1014.48 1014.10 1013.65
1013.92 1013.19 1013.46 1014.12 1014.86 1015.21 1015.73 1016.20 1016.40 1016.48 1016.48 1016.35 1016.28 1016.28 1016.39 1016.40 1016.35 1016.17 1015.99 1015.93 1015.88 1015.88 1015.88 1015.82 1015.74 1015.61 1015.56 1015.59 1015.56 1015.46 1015.42 1015.32 1015.33 1015.25 1015.00 1014.81 1014.56 1014.50 1014.38 1014.28 1014.15 1013.88 1013.25
1014.20 1014.95 1014.87 1014.46 1015.06 1015.46 1015.88 1016.34 1016.66 1016.89 1016.86 1016.81 1016.74 1016.73 1016.87 1016.80 1016.51 1016.36 1016.28 1016.23 1016.19 1016.19 1016.16 1016.04 1015.81 1015.67 1015.74 1015.68 1015.52 1015.37 1015.24 1015.13 1015.02 1014.86 1014.76 1014.55 1014.30 1014.09 1014.02 1013.90 1013.71 1013.42 1012.95
1015.40 1014.77 1015.22 1015.20 1015.52 1015.96 1016.30 1016.41 1016.81 1017.09 1017.14 1017.14 1017.00 1017.06 1017.24 1017.29 1016.89 1016.64 1016.52 1016.40 1016.31 1016.25 1016.21 1016.17 1015.97 1015.93 1016.09 1015.96 1015.75 1015.56 1015.34 1015.04 1014.82 1014.74 1014.64 1014.36 1014.13 1013.92 1013.80 1013.56 1013.34 1012.92 1012.58
1015.41 1014.78 1015.28 1015.54 1015.80 1016.37 1016.41 1016.69 1017.06 1017.18 1017.30 1017.26 1017.24 1017.28 1017.59 1017.92 1017.64 1017.24 1017.03 1017.10 1016.96 1016.81 1016.62 1016.43 1016.32 1016.39 1016.35 1016.19 1015.97 1015.70 1015.36 1014.81 1014.28 1014.26 1014.12 1013.95 1013.72 1013.51 1013.41 1013.45 1012.96 1012.72 1012.02
1015.32 1015.02 1015.15 1015.62 1015.99 1016.38 1016.49 1016.83 1017.21 1017.27 1017.48 1017.41 1017.64 1018.00 1018.14 1018.17 1018.31 1018.05 1017.72 1017.52 1017.34 1017.24 1017.00 1016.88 1016.75 1016.56 1016.32 1016.22 1016.30 1015.90 1015.29 1014.61 1014.31 1013.82 1013.52 1013.34 1013.15 1012.84 1012.72 1012.66 1012.43 1012.16 1011.70
1014.98 1014.87 1015.11 1015.68 1016.14 1016.46 1016.72 1016.96 1017.44 1017.52 1017.62 1017.94 1017.86 1018.16 1018.46 1018.58 1018.55 1018.29 1018.22 1018.06 1017.71 1017.58 1017.25 1016.88 1016.98 1016.83 1016.54 1016.17 1015.92 1015.77 1015.36 1014.84 1014.32 1014.04 1013.62 1013.16 1012.74 1012.44 1012.08 1011.78 1011.70 1011.68 1011.22
1014.50 1014.90 1015.34 1015.88 1016.08 1016.40 1016.93 1017.41 1017.60 1017.72 1017.75 1018.06 1018.31 1018.41 1018.56 1018.92 1018.75 1018.57 1018.36 1018.17 1017.84 1017.52 1017.69 1017.41 1016.96 1016.87 1016.46 1016.10 1015.88 1015.51 1015.02 1014.66 1014.38 1014.04 1013.70 1013.19 1012.68 1012.20 1011.77 1011.45 1011.07 1010.89 1010.58
1014.39 1015.00 1015.55 1015.88 1016.16 1016.64 1017.14 1017.50 1017.68 1017.80 1017.70 1018.14 1018.38 1018.44 1018.42 1018.88 1018.93 1018.67 1018.29 1018.07 1017.80 1017.54 1017.53 1017.21 1017.02 1016.63 1016.76 1016.33 1016.21 1015.78 1015.26 1014.97 1014.42 1013.98 1013.69 1013.28 1012.76 1012.33 1011.86 1011.28 1010.66 1010.32 1009.98
1014.06 1014.64 1015.22 1015.73 1016.37 1016.88 1017.15 1017.59 1017.80 1018.06 1018.30 1018.27 1018.40 1018.50 1018.66 1018.88 1018.83 1018.62 1018.49 1018.10 1017.81 1017.48 1017.29 1017.10 1017.29 1017.11 1016.92 1017.06 1016.43 1016.16 1015.94 1015.68 1015.25 1014.98 1014.44 1013.93 1013.35 1012.72 1012.04 1011.41 1010.91 1010.36 1009.98
1014.07 1014.72 1015.34 1016.03 1016.63 1017.08 1017.56 1017.89 1018.06 1018.19 1017.95 1018.10 1018.48 1018.69 1018.96 1019.30 1019.35 1019.14 1018.83 1018.93 1018.60 1017.94 1017.41 1017.54 1017.16 1017.10 1017.25 1017.27 1017.04 1016.75 1016.39 1016.11 1015.79 1015.56 1015.00 1014.44 1013.99 1013.41 1012.78 1012.23 1011.49 1010.74 1010.08
1014.33 1015.02 1015.72 1016.23 1016.72 1017.32 1017.86 1018.21 1018.10 1018.06 1017.78 1017.95 1018.24 1018.58 1019.27 1019.35 1019.31 1019.08 1019.06 1018.62 1018.67 1018.46 1017.79 1017.86 1017.62 1017.58 1017.54 1017.75 1017.44 1017.05 1016.73 1016.54 1016.26 1015.97 1015.60 1015.14 1014.65 1014.14 1013.65 1012.93 1012.31 1011.58 1010.85
1014.45 1015.06 1015.45 1016.18 1016.75 1017.38 1017.79 1017.90 1017.77 1018.28 1018.21 1018.20 1018.28 1018.68 1019.08 1019.07 1019.30 1019.17 1018.64 1018.88 1018.93 1018.80 1018.19 1018.40 1018.05 1017.92 1018.05 1018.00 1017.79 1017.51 1017.20 1016.92 1016.74 1016.30 1015.96 1015.45 1015.04 1014.71 1014.12 1013.35 1012.66 1012.02 1011.32
1014.44 1014.90 1015.63 1016.19 1016.72 1017.24 1017.29 1017.16 1017.05 1017.66 1018.08 1018.54 1018.54 1018.63 1018.78 1019.14 1019.26 1018.89 1018.60 1018.83 1019.04 1019.05 1018.82 1018.70 1018.40 1018.31 1018.48 1018.42 1018.10 1017.80 1017.48 1017.14 1016.86 1016.60 1016.13 1015.73 1015.47 1015.16 1014.42 1013.67 1013.13 1012.59 1011.92
1014.47 1015.14 1015.65 1015.96 1016.32 1016.55 1016.66 1016.72 1016.87 1017.41 1017.63 1018.07 1018.36 1018.50 1018.66 1018.93 1018.98 1018.82 1018.96 1018.62 1019.02 1019.08 1018.98 1018.60 1018.44 1018.53 1018.63 1018.50 1018.33 1018.10 1017.88 1017.57 1017.24 1016.73 1016.32 1016.19 1015.91 1015.44 1014.80 1014.18 1013.56 1012.98 1012.34
1014.54 1014.74 1015.30 1015.65 1015.96 1016.08 1016.30 1016.59 1016.72 1016.87 1017.23 1017.37 1017.80 1018.01 1018.45 1018.52 1018.34 1018.38 1018.49 1019.08 1019.26 1018.97 1018.66 1018.47 1018.32 1018.43 1018.31 1018.14 1018.05 1017.94 1017.74 1017.54 1017.26 1016.98 1016.72 1016.40 1016.13 1015.70 1015.06 1014.46 1013.86 1013.23 1012.48
1014.41 1014.64 1015.02 1015.18 1015.58 1015.96 1016.05 1016.29 1016.33 1016.40 1016.52 1016.81 1016.98 1017.31 1017.34 1017.44 1017.61 1018.04 1018.46 1018.96 1018.86 1018.54 1018.20 1018.05 1017.88 1017.85 1017.82 1017.70 1017.64 1017.53 1017.36 1017.24 1017.12 1016.98 1016.79 1016.47 1016.10 1015.60 1015.12 1014.52 1013.78 1013.01 1012.38
1013.89 1013.95 1014.61 1015.06 1015.31 1015.66 1015.86 1015.80 1015.77 1015.76 1015.95 1016.26 1016.43 1016.64 1016.98 1017.44 1017.58 1017.87 1018.20 1018.36 1018.22 1017.96 1017.70 1017.70 1017.62 1017.48 1017.35 1017.22 1017.08 1016.98 1016.91 1016.88 1016.98 1016.94 1016.70 1016.38 1016.00 1015.49 1014.93 1014.34 1013.56 1012.91 1012.25
1013.79 1014.09 1014.34 1014.60 1014.93 1015.14 1015.14 1015.07 1015.13 1015.24 1015.52 1015.79 1016.10 1016.31 1016.67 1017.04 1017.16 1017.40 1017.46 1017.42 1017.34 1017.23 1017.17 1017.28 1017.17 1016.88 1016.61 1016.48 1016.42 1016.52 1016.63 1016.62 1016.73 1016.84 1016.59 1016.33 1015.99 1015.46 1014.88 1014.19 1013.51 1012.82 1012.23
1013.34 1013.83 1014.03 1014.15 1014.33 1014.41 1014.56 1014.77 1014.83 1015.12 1015.54 1015.75 1015.78 1016.02 1016.06 1016.36 1016.58 1016.61 1016.64 1016.64 1016.58 1016.39 1016.48 1016.54 1016.51 1016.16 1016.07 1015.96 1015.89 1015.94 1016.18 1016.34 1016.54 1016.50 1016.47 1016.14 1015.78 1015.31 1014.68 1013.97 1013.34 1012.75 1012.19
1012.99 1013.23 1013.50 1013.60 1013.72 1013.98 1014.34 1014.53 1014.62 1014.75 1014.96 1015.05 1015.04 1015.32 1015.46 1015.65 1015.94 1015.81 1015.71 1015.76 1015.70 1015.69 1015.68 1015.75 1015.64 1015.51 1015.41 1015.35 1015.45 1015.50 1015.60 1015.90 1016.13 1016.14 1016.02 1015.80 1015.45 1015.02 1014.45 1013.89 1013.34 1012.65 1012.04
1012.65 1012.75 1012.94 1013.05 1013.34 1013.60 1013.78 1013.90 1013.93 1014.08 1014.12 1014.18 1014.43 1014.64 1014.84 1015.01 1014.96 1014.99 1015.04 1015.01 1014.98 1014.95 1014.82 1014.88 1014.87 1014.82 1014.79 1014.68 1014.80 1015.02 1015.30 1015.62 1015.70 1015.82 1015.64 1015.35 1014.99 1014.46 1014.01 1013.59 1013.06 1012.47 1011.93
Wind_Speed
6 5 4 3 4 3 3 2 3 3 3 3 2 2 4 4 5 6 6 6 6 6 5 6 7 5 4 4 4 4 5 5 5 3 4 2 3 5 5 6 7 8 7
5 4 4 4 5 6 5 4 5 5 5 4 4 3 1 2 3 5 5 5 7 7 7 6 7 4 6 5 4 6 6 7 5 8 3 4 6 3 5 5 6 7 8
6 7 6 6 6 6 6 5 5 5 5 5 5 5 4 4 2 2 4 4 5 6 6 6 6 5 6 4 5 5 4 5 6 5 5 3 4 4 5 5 6 7 7
8 9 9 7 7 6 5 5 5 4 5 5 4 4 4 5 5 5 5 3 2 3 3 4 5 5 5 4 4 5 5 5 4 5 6 6 4 4 3 5 6 4 5
9 10 10 9 7 6 5 5 5 5 5 4 4 4 4 5 5 4 4 3 4 4 4 3 2 2 3 4 2 3 3 3 3 4 4 4 5 4 5 2 4 5 7
3 9 9 9 7 7 6 5 5 5 5 5 6 6 6 5 8 7 5 4 4 3 4 5 4 5 4 5 3 6 5 4 5 3 3 4 7 5 3 4 4 3 4
7 4 3 8 7 6 6 5 4 4 3 4 4 5 5 5 10 8 7 4 4 5 5 6 6 4 6 5 5 5 4 5 9 6 7 7 7 5 4 6 6 6 6
4 6 5 6 7 5 4 5 4 2 2 2 3 4 6 6 9 9 8 5 4 5 6 6 5 4 7 8 6 5 5 5 4 3 5 8 8 8 7 8 10 8 8
3 6 5 5 6 4 5 4 2 2 1 1 1 6 8 8 14 13 8 5 5 5 5 5 5 4 6 10 7 7 8 8 6 8 8 9 11 10 9 4 7 6 8
6 5 6 5 6 4 4 4 1 1 2 5 8 7 9 8 11 13 9 3 4 5 6 6 7 7 5 7 7 6 8 9 9 10 9 8 7 10 10 8 6 9 8
6 5 6 5 5 4 4 3 3 4 5 5 8 6 7 6 7 10 9 4 2 4 4 5 6 12 12 13 9 7 8 8 11 8 8 8 8 8 7 5 7 7 8
7 6 6 5 4 4 5 3 3 3 5 4 5 4 5 5 9 8 8 6 4 2 4 4 5 11 10 10 8 9 10 9 4 5 6 6 6 7 7 7 8 8 8
8 7 5 5 4 4 4 3 2 3 4 3 3 3 3 3 4 9 8 9 7 3 3 4 6 8 9 8 13 14 10 7 6 4 6 6 7 8 9 9 8 8 9
8 6 5 5 4 2 2 2 3 2 3 3 3 3 3 3 5 5 6 6 7 5 5 6 7 8 9 10 9 9 8 8 7 6 6 6 7 7 9 8 7 8 7
6 5 5 3 3 3 2 1 2 2 3 3 2 2 2 2 3 5 4 6 5 4 4 5 6 7 7 7 7 8 8 7 6 6 6 7 7 8 8 9 6 8 6
6 4 3 4 3 3 4 3 8 4 5 6 9 5 1 2 3 3 4 6 7 8 5 5 6 6 6 6 7 7 7 9 8 7 6 6 7 8 9 9 7 7 8
7 6 4 4 4 5 4 4 4 4 7 7 8 9 5 4 2 1 3 5 7 3 5 4 4 5 5 5 5 6 7 7 7 6 6 6 7 7 8 7 8 7 8
5 6 4 4 5 4 5 5 4 6 6 3 3 4 6 3 2 3 5 4 3 3 3 3 3 4 4 4 5 5 5 6 6 6 6 7 7 7 8 9 8 9 8
5 4 5 4 4 4 4 4 4 5 6 4 2 2 5 5 2 2 2 2 1 1 1 0 0 1 2 3 4 5 6 6 6 6 6 6 7 7 8 8 9 11 11
5 7 6 4 4 4 4 4 4 5 6 5 5 5 3 3 1 0 1 1 3 3 3 2 2 3 3 3 3 4 5 6 6 6 6 5 6 6 7 8 8 9 8
5 5 7 4 4 4 4 4 4 5 6 5 4 5 6 3 2 2 2 4 5 5 4 4 4 4 4 4 4 4 4 5 5 5 5 5 6 7 7 7 7 8 8
5 5 5 5 4 4 5 4 5 5 4 3 2 2 4 3 4 4 5 6 6 5 4 4 5 5 5 4 4 4 4 5 6 6 5 5 6 6 7 8 8 8 9
5 6 5 4 4 5 4 3 5 4 4 4 4 4 4 6 6 6 6 7 6 5 4 4 5 5 4 4 4 4 4 5 4 4 5 5 5 6 7 8 9 9 9
6 6 6 5 4 4 4 4 4 5 4 5 5 5 6 6 7 7 7 6 6 6 5 5 5 6 6 5 4 4 4 3 3 3 4 4 5 6 7 8 8 10 9
5 5 5 5 5 5 5 6 6 6 6 6 6 6 6 6 7 7 7 6 6 6 7 5 5 6 8 8 7 6 6 6 6 3 3 4 6 8 7 7 8 9 10
4 4 4 5 6 6 6 6 7 6 7 6 5 6 6 7 7 7 6 6 6 7 8 6 7 9 9 7 8 8 7 6 6 7 4 4 5 6 6 8 11 8 11
Wind_Direction
177 169 181 198 186 193 159 166 81 67 47 52 130 186 198 195 200 202 215 214 219 232 231 233 241 229 236 220 200 202 206 190 227 268 244 287 281 270 251 242 253 250 248
166 162 149 115 113 100 80 70 70 71 50 56 60 81 152 243 218 228 240 234 225 224 230 223 241 239 242 237 219 215 211 203 210 244 243 241 233 256 261 262 254 251 250
135 125 113 100 93 86 77 66 64 72 63 57 64 61 49 41 64 219 227 245 250 246 240 230 245 232 241 233 231 242 233 223 215 231 258 241 252 242 256 255 258 262 257
128 121 114 111 102 95 87 71 55 56 61 55 56 59 59 60 52 39 43 33 327 296 263 248 247 246 257 262 255 252 254 247 224 232 248 261 252 245 233 258 269 235 266
132 125 127 118 108 102 87 78 72 57 55 51 52 47 61 63 46 42 35 35 29 13 17 14 25 349 289 277 266 277 260 257 255 248 245 252 264 257 249 266 263 277 275
51 123 121 109 111 103 93 82 72 63 50 60 56 63 52 48 2 19 41 37 30 15 346 338 333 324 349 3 323 268 252 248 251 253 247 243 254 248 246 264 271 275 296
98 86 85 108 105 99 102 100 82 65 58 52 44 40 42 26 10 17 30 25 14 6 354 342 332 342 358 338 325 308 276 253 241 258 261 261 269 255 264 273 265 260 255
160 118 108 107 105 100 100 94 90 65 49 33 48 65 72 37 28 38 42 40 40 31 16 2 340 0 26 12 355 344 327 311 295 288 264 274 273 279 274 271 282 278 278
175 141 120 112 99 108 97 92 81 69 44 26 88 103 85 44 28 32 36 24 19 8 7 11 37 42 20 18 354 331 316 303 300 278 270 274 275 270 254 284 264 261 273
186 149 126 116 121 124 118 112 88 73 76 78 81 87 87 70 37 36 22 13 2 343 340 341 338 337 331 351 329 306 299 296 315 317 315 302 282 285 269 234 256 260 265
164 121 114 117 118 113 111 94 106 93 90 88 102 92 80 69 46 37 25 15 347 322 315 325 328 329 330 322 312 284 273 304 303 303 301 302 305 302 297 278 251 244 259
140 122 117 125 121 112 117 111 108 123 104 107 121 105 74 47 38 23 18 17 15 334 325 323 322 327 327 328 338 308 288 292 290 292 293 294 306 313 315 311 296 277 259
129 132 136 130 122 130 138 142 122 102 118 124 118 92 64 31 25 9 3 7 11 14 332 328 335 11 6 20 13 7 9 4 350 339 342 334 325 319 313 316 312 301 290
132 130 123 121 132 145 125 142 131 130 121 116 96 75 45 22 19 7 5 -0 5 22 20 39 43 33 37 19 17 19 20 12 7 356 341 334 326 336 327 330 320 321 314
122 133 136 143 155 143 80 54 173 212 174 145 129 113 81 24 22 4 22 2 355 16 56 49 43 38 30 23 18 16 14 8 6 354 349 345 342 341 334 337 325 319 292
137 142 153 155 148 162 167 161 42 22 163 127 135 132 137 184 233 70 27 21 9 8 50 51 49 39 39 26 21 17 17 9 2 352 347 345 344 343 335 337 337 338 327
149 159 143 147 161 176 186 188 152 60 67 96 130 144 165 166 214 52 53 68 30 23 70 67 64 50 39 31 22 16 9 3 352 354 342 343 344 335 330 333 341 343 343
142 139 152 176 188 196 198 188 165 171 179 175 171 169 178 191 241 55 75 80 51 58 78 63 48 35 21 10 7 5 359 359 1 352 347 346 344 339 341 346 347 341 336
150 163 185 188 191 200 203 197 197 192 191 186 169 213 210 209 289 11 67 83 124 180 205 176 20 332 326 333 343 348 347 346 343 348 353 351 349 343 341 342 339 337 327
173 180 182 175 173 172 177 188 196 191 187 190 207 208 181 166 219 20 36 279 244 242 235 243 234 251 268 293 311 324 337 346 346 346 345 344 339 337 333 332 333 329 324
174 176 168 142 159 177 182 197 188 179 181 198 219 202 187 177 206 231 242 239 241 243 245 250 258 258 260 267 281 300 320 332 335 332 329 328 332 333 334 329 320 326 323
183 177 166 171 168 178 191 185 174 167 173 217 229 223 190 221 223 229 236 248 251 250 253 259 268 265 266 272 284 294 299 317 323 324 323 324 327 326 325 322 326 331 332
172 170 169 168 184 178 172 165 175 181 195 223 219 209 203 230 232 232 240 246 250 255 250 244 258 273 271 262 253 261 267 295 307 303 307 318 321 320 325 324 326 329 331
170 184 187 184 179 178 175 187 200 206 214 234 230 217 227 233 239 242 244 250 246 255 253 256 259 266 281 283 254 231 229 260 267 269 271 290 303 315 325 330 332 329 326
178 182 192 190 185 191 197 208 208 204 208 219 226 229 233 234 245 248 248 247 253 257 261 252 256 266 268 276 261 236 232 231 236 241 245 260 284 304 316 323 331 329 334
198 202 205 190 198 205 207 213 219 214 219 215 217 230 229 236 233 237 239 235 247 251 249 250 252 258 267 264 255 238 233 228 234 230 256 269 288 305 320 323 330 332 333